When you browse on this site, cookies collect data to enhance your experience and personalize the content and advertising you see.
Visit our Privacy Policy to learn more. By continuing to use the site, you agree to this use of cookies and data.
  • In Sweden
  • List of Countries
  • For 7 days
  • Water Temperature
  • Weather Map
  • Weather Widgets
  • user-avatar
    Login

    Hourly Weather Koudougou

    Today, 21 August, Wednesday

    Time Temperature Precipitation Wind Pressure Humidity
    00:00 +26°C° 0 mm 2 mps 733 mmHg 82%
    01:00 +26°C° 0 mm 2 mps 733 mmHg 81%
    02:00 +26°C° 0 mm 2 mps 732 mmHg 81%
    03:00 +26°C° 0 mm 3 mps 732 mmHg 81%
    04:00 +26°C° 0 mm 3 mps 733 mmHg 83%
    05:00 +25°C° 0 mm 3 mps 733 mmHg 86%
    06:00 +25°C° 0 mm 3 mps 733 mmHg 88%
    07:00 +26°C° 0 mm 5 mps 734 mmHg 84%
    08:00 +27°C° 0 mm 6 mps 734 mmHg 80%
    09:00 +28°C° 0 mm 8 mps 734 mmHg 76%
    10:00 +29°C° 0 mm 7 mps 734 mmHg 72%
    11:00 +30°C° 0 mm 7 mps 733 mmHg 68%
    12:00 +32°C° 0 mm 6 mps 733 mmHg 64%
    13:00 +32°C° 0 mm 6 mps 732 mmHg 63%
    14:00 +33°C° 0 mm 5 mps 732 mmHg 62%
    15:00 +33°C° 0 mm 5 mps 731 mmHg 61%
    16:00 +32°C° 0 mm 4 mps 731 mmHg 64%
    17:00 +31°C° 0 mm 3 mps 731 mmHg 67%
    18:00 +30°C° 0 mm 3 mps 731 mmHg 71%
    19:00 +29°C° 0 mm 3 mps 732 mmHg 73%
    20:00 +29°C° 0 mm 2 mps 732 mmHg 75%
    21:00 +28°C° 0 mm 2 mps 733 mmHg 78%
    22:00 +28°C° 0 mm 3 mps 733 mmHg 79%
    23:00 +27°C° 0 mm 3 mps 733 mmHg 81%

    Tomorrow, 22 August, Thursday

    Time Temperature Precipitation Wind Pressure Humidity
    00:00 +27°C° 0 mm 3 mps 733 mmHg 82%
    01:00 +27°C° 0.8 mm 3 mps 733 mmHg 84%
    02:00 +26°C° 0.8 mm 3 mps 732 mmHg 86%
    03:00 +26°C° 0.8 mm 3 mps 732 mmHg 88%
    04:00 +26°C° 1.9 mm 3 mps 732 mmHg 89%
    05:00 +26°C° 1.9 mm 3 mps 732 mmHg 90%
    06:00 +25°C° 1.9 mm 2 mps 733 mmHg 91%
    07:00 +26°C° 1 mm 4 mps 733 mmHg 87%
    08:00 +27°C° 1 mm 5 mps 733 mmHg 83%
    09:00 +28°C° 1 mm 6 mps 734 mmHg 78%
    10:00 +29°C° 0 mm 6 mps 734 mmHg 74%
    11:00 +30°C° 0 mm 6 mps 733 mmHg 69%
    12:00 +32°C° 0 mm 7 mps 733 mmHg 64%
    13:00 +32°C° 0.2 mm 6 mps 733 mmHg 63%
    14:00 +33°C° 0.2 mm 6 mps 732 mmHg 63%
    15:00 +33°C° 0.2 mm 6 mps 731 mmHg 62%
    16:00 +30°C° 3.7 mm 5 mps 732 mmHg 71%
    17:00 +28°C° 3.7 mm 4 mps 732 mmHg 80%
    18:00 +26°C° 3.7 mm 3 mps 732 mmHg 89%
    19:00 +26°C° 1.4 mm 3 mps 732 mmHg 90%
    20:00 +26°C° 1.4 mm 3 mps 733 mmHg 90%
    21:00 +26°C° 1.4 mm 2 mps 733 mmHg 90%
    22:00 +26°C° 0.1 mm 2 mps 733 mmHg 91%
    23:00 +26°C° 0.1 mm 2 mps 733 mmHg 91%

    Day after tomorrow, 23 August, Friday

    Time Temperature Precipitation Wind Pressure Humidity
    00:00 +26°C° 0.1 mm 2 mps 733 mmHg 91%
    01:00 +26°C° 1.8 mm 3 mps 733 mmHg 89%
    02:00 +26°C° 1.8 mm 3 mps 732 mmHg 87%
    03:00 +26°C° 1.8 mm 3 mps 732 mmHg 86%
    04:00 +26°C° 1.9 mm 4 mps 732 mmHg 85%
    05:00 +26°C° 1.9 mm 4 mps 732 mmHg 85%
    06:00 +26°C° 1.9 mm 5 mps 732 mmHg 85%
    07:00 +26°C° 0.3 mm 5 mps 733 mmHg 84%
    08:00 +26°C° 0.3 mm 6 mps 733 mmHg 84%
    09:00 +27°C° 0.3 mm 6 mps 734 mmHg 83%
    10:00 +27°C° 0 mm 6 mps 733 mmHg 83%
    11:00 +27°C° 0 mm 6 mps 733 mmHg 83%
    12:00 +27°C° 0 mm 5 mps 733 mmHg 82%
    13:00 +27°C° 0 mm 6 mps 732 mmHg 81%
    14:00 +28°C° 0 mm 6 mps 732 mmHg 79%
    15:00 +28°C° 0 mm 6 mps 731 mmHg 77%
    16:00 +28°C° 0 mm 5 mps 731 mmHg 79%
    17:00 +27°C° 0 mm 5 mps 731 mmHg 81%
    18:00 +27°C° 0 mm 4 mps 731 mmHg 84%
    19:00 +26°C° 0.9 mm 4 mps 732 mmHg 87%
    20:00 +25°C° 0.9 mm 4 mps 732 mmHg 90%
    21:00 +25°C° 0.9 mm 3 mps 732 mmHg 93%
    22:00 +25°C° 1 mm 4 mps 732 mmHg 93%
    23:00 +25°C° 1 mm 4 mps 732 mmHg 93%

    24 August, Saturday

    Time Temperature Precipitation Wind Pressure Humidity
    00:00 +25°C° 1 mm 4 mps 733 mmHg 93%
    01:00 +23°C° 0.3 mm 4 mps 732 mmHg 94%
    02:00 +23°C° 0.3 mm 4 mps 732 mmHg 94%
    03:00 +23°C° 0.3 mm 4 mps 731 mmHg 94%
    04:00 +23°C° 0 mm 4 mps 732 mmHg 95%
    05:00 +23°C° 0 mm 4 mps 732 mmHg 95%
    06:00 +23°C° 0 mm 4 mps 732 mmHg 96%
    07:00 +23°C° 0.1 mm 4 mps 732 mmHg 93%
    08:00 +25°C° 0.1 mm 4 mps 733 mmHg 90%
    09:00 +26°C° 0.1 mm 4 mps 733 mmHg 88%
    10:00 +27°C° 0.6 mm 4 mps 733 mmHg 83%
    11:00 +28°C° 0.6 mm 4 mps 733 mmHg 78%
    12:00 +29°C° 0.6 mm 4 mps 733 mmHg 72%
    13:00 +29°C° 2.9 mm 4 mps 732 mmHg 75%
    14:00 +28°C° 2.9 mm 4 mps 732 mmHg 78%
    15:00 +28°C° 2.9 mm 4 mps 731 mmHg 80%
    16:00 +27°C° 2.4 mm 4 mps 731 mmHg 83%
    17:00 +27°C° 2.4 mm 4 mps 731 mmHg 87%
    18:00 +26°C° 2.4 mm 3 mps 731 mmHg 90%
    19:00 +25°C° 3 mm 4 mps 732 mmHg 91%
    20:00 +25°C° 3 mm 4 mps 732 mmHg 93%
    21:00 +25°C° 3 mm 5 mps 733 mmHg 94%
    22:00 +25°C° 2.7 mm 5 mps 733 mmHg 94%
    23:00 +23°C° 2.7 mm 5 mps 733 mmHg 95%

    25 August, Sunday

    Time Temperature Precipitation Wind Pressure Humidity
    00:00 +23°C° 2.7 mm 4 mps 733 mmHg 95%
    01:00 +23°C° 2.2 mm 5 mps 732 mmHg 95%
    02:00 +23°C° 2.2 mm 5 mps 732 mmHg 95%
    03:00 +23°C° 2.2 mm 5 mps 732 mmHg 95%
    04:00 +23°C° 0.9 mm 5 mps 732 mmHg 95%
    05:00 +23°C° 0.9 mm 5 mps 732 mmHg 95%
    06:00 +23°C° 0.9 mm 5 mps 732 mmHg 95%
    07:00 +23°C° 0.5 mm 5 mps 733 mmHg 93%
    08:00 +23°C° 0.5 mm 5 mps 733 mmHg 91%
    09:00 +24°C° 0.5 mm 6 mps 734 mmHg 90%
    10:00 +26°C° 0.3 mm 6 mps 733 mmHg 85%
    11:00 +27°C° 0.3 mm 6 mps 733 mmHg 81%
    12:00 +28°C° 0.3 mm 6 mps 733 mmHg 77%
    13:00 +28°C° 1.2 mm 6 mps 732 mmHg 76%
    14:00 +29°C° 1.2 mm 6 mps 732 mmHg 75%
    15:00 +29°C° 1.2 mm 6 mps 731 mmHg 74%
    16:00 +28°C° 0.9 mm 6 mps 731 mmHg 77%
    17:00 +28°C° 0.9 mm 5 mps 731 mmHg 80%
    18:00 +27°C° 0.9 mm 4 mps 731 mmHg 84%
    19:00 +27°C° 1.2 mm 4 mps 732 mmHg 85%
    20:00 +26°C° 1.2 mm 5 mps 733 mmHg 86%
    21:00 +25°C° 1.2 mm 5 mps 733 mmHg 87%
    22:00 +25°C° 0.3 mm 5 mps 733 mmHg 88%
    23:00 +25°C° 0.3 mm 5 mps 733 mmHg 89%

    26 August, Monday

    Time Temperature Precipitation Wind Pressure Humidity
    00:00 +25°C° 0.3 mm 5 mps 733 mmHg 90%
    01:00 +25°C° 0.4 mm 5 mps 733 mmHg 90%
    02:00 +23°C° 0.4 mm 4 mps 733 mmHg 90%
    03:00 +23°C° 0.4 mm 4 mps 733 mmHg 90%
    04:00 +23°C° 0.5 mm 4 mps 733 mmHg 90%
    05:00 +23°C° 0.5 mm 4 mps 733 mmHg 89%
    06:00 +23°C° 0.5 mm 4 mps 733 mmHg 89%
    07:00 +25°C° 0.2 mm 5 mps 734 mmHg 86%
    08:00 +26°C° 0.2 mm 6 mps 734 mmHg 84%
    09:00 +27°C° 0.2 mm 6 mps 735 mmHg 81%
    10:00 +27°C° 0.6 mm 6 mps 735 mmHg 79%
    11:00 +28°C° 0.6 mm 6 mps 734 mmHg 78%
    12:00 +28°C° 0.6 mm 6 mps 734 mmHg 76%
    13:00 +29°C° 0.6 mm 6 mps 733 mmHg 74%
    14:00 +30°C° 0.6 mm 6 mps 733 mmHg 72%
    15:00 +30°C° 0.6 mm 6 mps 732 mmHg 70%
    16:00 +29°C° 0.8 mm 5 mps 732 mmHg 74%
    17:00 +29°C° 0.8 mm 4 mps 732 mmHg 77%
    18:00 +28°C° 0.8 mm 3 mps 732 mmHg 81%
    19:00 +27°C° 0.6 mm 3 mps 732 mmHg 83%
    20:00 +27°C° 0.6 mm 2 mps 733 mmHg 85%
    21:00 +26°C° 0.6 mm 2 mps 734 mmHg 87%
    22:00 +26°C° 0.6 mm 2 mps 734 mmHg 87%
    23:00 +26°C° 0.6 mm 3 mps 734 mmHg 87%
    Show more